Probability
0 0 0 0 0 0 0 0 1 3 7 10 10 8 5 4 3 3 3 1 0 0 0 0 0 0 0 0 0 0 0 0 0 0 0 0 0 0 0 0 0 0 0
0 0 0 0 0 0 0 0 1 2 5 7 9 9 6 4 4 3 3 2 1 1 0 0 0 0 0 0 0 0 0 0 0 0 0 0 0 0 0 0 0 0 0
0 0 0 0 0 0 0 0 0 1 2 4 6 8 7 6 5 4 3 3 3 2 1 0 0 0 0 0 0 0 0 0 0 0 0 0 0 0 0 0 0 0 0
0 0 0 0 0 0 0 0 0 0 1 1 3 5 6 6 5 4 3 3 3 3 2 1 0 0 0 0 0 0 0 0 0 0 0 0 0 0 0 0 0 0 0
0 0 0 0 0 0 0 0 0 0 0 0 2 4 4 4 4 3 3 3 3 3 2 1 0 0 0 0 0 0 0 0 0 0 0 0 0 0 0 0 0 0 0
0 0 0 0 0 0 0 0 0 0 0 1 2 3 3 3 3 3 4 4 4 3 3 1 1 0 0 0 0 0 0 0 0 0 0 0 0 0 0 0 0 0 0
0 0 0 0 0 0 0 0 0 0 0 1 2 3 2 2 2 4 5 6 5 4 3 3 2 1 0 0 0 0 0 0 0 0 0 0 0 0 0 0 0 0 0
0 0 0 0 0 0 0 0 0 0 0 0 1 2 2 1 2 4 6 6 6 5 4 3 3 2 1 0 0 0 0 0 0 0 0 0 0 0 0 0 0 0 0
0 0 0 0 0 0 0 0 0 0 0 0 0 1 2 2 1 2 5 6 5 4 3 3 3 2 1 0 0 0 0 0 0 0 0 0 0 0 0 0 0 0 0
0 0 0 0 0 0 0 0 0 0 0 0 0 0 1 2 1 1 3 5 4 3 3 3 2 1 0 0 0 0 0 0 0 0 0 0 0 0 0 0 0 0 0
0 0 0 0 0 0 0 0 0 0 0 0 0 0 1 1 1 1 2 3 3 3 3 2 1 0 0 0 0 0 0 0 0 0 0 0 0 0 0 0 0 0 0
0 0 0 0 0 0 0 0 0 0 0 0 0 0 0 1 1 1 1 2 2 2 2 1 0 0 0 0 0 0 0 0 0 0 0 0 0 0 0 0 0 0 0
0 0 0 0 0 0 0 0 0 0 0 0 0 0 0 1 2 2 1 1 1 1 1 0 0 0 0 0 0 0 0 0 0 0 0 0 0 0 0 0 0 0 0
0 0 0 0 0 0 0 0 0 0 0 0 0 0 1 1 3 3 1 0 0 0 0 0 0 0 0 0 0 0 0 0 0 0 0 0 0 0 0 0 0 0 0
0 0 0 0 0 0 0 0 0 0 0 0 0 1 2 3 3 2 1 0 0 0 0 0 0 0 0 0 0 0 0 0 0 0 0 0 0 0 0 0 0 0 0
0 0 0 0 0 0 0 0 0 0 0 0 1 2 3 3 3 1 1 0 0 0 0 0 0 0 0 0 0 0 0 0 0 0 0 0 0 0 0 0 0 0 0
0 0 0 0 0 0 0 0 0 0 0 0 1 2 3 3 2 1 0 0 0 0 0 0 0 0 0 0 0 0 0 0 0 0 0 0 0 0 0 0 0 0 0
0 0 0 0 0 0 0 0 0 0 0 0 1 2 2 1 1 0 0 0 0 0 0 0 0 0 0 0 0 0 0 0 0 0 0 0 0 0 0 0 0 0 0
0 0 0 0 0 0 0 0 0 0 0 0 0 1 1 0 0 0 0 0 0 0 0 0 0 0 0 0 0 0 0 0 0 0 0 0 0 0 0 0 0 0 0
0 0 0 0 0 0 0 0 0 0 0 0 0 0 0 0 0 0 0 0 0 0 0 0 0 0 0 0 0 0 0 0 0 0 0 0 0 0 0 0 0 0 0
0 0 0 0 0 0 0 0 0 0 0 0 0 0 0 0 0 0 0 0 0 0 0 0 0 0 0 0 0 0 0 0 0 0 0 0 0 0 0 0 0 0 0
0 0 0 0 0 0 0 0 0 0 0 0 0 0 0 0 0 0 0 0 0 0 0 0 0 0 0 0 0 0 0 0 0 0 0 0 0 0 0 0 0 0 0
0 0 0 0 0 0 0 0 0 0 0 0 0 0 0 0 0 0 0 0 0 0 0 0 0 0 0 0 0 0 0 0 0 0 0 0 0 0 0 0 0 0 0
0 0 0 0 0 0 0 0 0 0 0 0 0 0 0 0 0 0 0 0 0 0 0 0 0 0 0 0 0 0 0 0 0 0 0 0 0 0 0 0 0 0 0
0 0 0 0 0 0 0 0 0 0 0 0 0 0 0 0 0 0 0 0 0 0 0 0 0 0 0 0 0 0 0 0 0 0 0 0 0 0 0 0 0 0 0
0 0 0 0 0 0 0 0 0 0 0 0 0 0 0 0 0 0 0 0 0 0 0 0 0 0 0 0 0 0 0 0 0 0 0 0 0 0 0 0 0 0 0
Wind_Speed
6 5 5 5 5 5 6 7 7 7 6 5 4 4 4 3 2 2 3 4 4 4 4 3 2 2 2 2 2 2 2 1 1 2 2 3 3 2 1 1 1 2 2
4 5 5 5 6 6 7 7 8 7 7 6 5 4 4 3 3 2 2 3 4 4 4 4 3 3 2 2 2 2 1 1 1 2 1 2 3 3 2 2 1 2 2
9 7 6 6 6 7 7 7 8 8 7 6 4 4 3 2 1 1 2 2 3 4 4 4 4 3 3 3 2 2 3 1 1 1 2 1 2 3 3 2 2 2 2
7 7 7 7 7 7 6 6 7 7 7 7 7 7 5 4 4 3 3 2 3 3 3 4 4 4 3 3 2 2 2 3 1 0 0 1 2 1 3 3 2 3 3
8 8 8 8 6 6 5 5 6 6 6 6 8 7 5 4 3 3 3 2 2 3 3 4 4 3 3 3 3 2 2 2 2 1 1 0 0 1 2 4 4 3 3
7 7 6 5 4 4 5 5 6 5 6 6 7 7 8 6 5 4 4 2 2 2 3 3 3 3 3 3 3 2 3 2 2 1 1 1 1 2 2 3 5 5 4
7 6 6 6 5 5 5 5 6 6 6 6 6 7 8 8 8 6 5 4 3 2 3 3 3 3 3 3 2 2 2 2 2 2 2 2 2 2 2 3 4 5 4
6 7 7 7 7 7 6 6 6 5 5 6 6 6 6 5 5 5 5 5 4 3 3 3 3 3 3 2 2 2 2 1 2 2 2 2 2 2 2 2 3 5 5
6 6 6 6 6 6 6 7 6 5 4 5 6 5 5 5 5 5 4 3 3 3 3 3 3 3 3 3 3 2 2 2 2 2 2 2 2 2 2 2 2 3 6
4 4 4 4 4 5 4 4 5 5 4 5 5 5 5 5 4 4 4 4 3 3 3 3 3 2 2 2 2 2 2 2 1 1 1 2 2 2 2 2 2 3 4
5 4 3 3 4 3 4 4 4 4 3 3 4 5 4 4 4 4 4 4 3 4 3 3 3 2 2 2 2 1 2 2 1 1 1 2 2 2 2 2 2 2 3
3 4 4 4 3 3 3 3 3 4 3 3 4 4 4 4 4 4 3 3 3 3 3 3 3 2 2 1 2 2 2 2 2 2 2 3 2 2 2 2 3 3 4
3 3 3 4 3 3 3 3 3 3 3 3 4 4 4 4 4 4 3 3 3 3 3 3 2 2 1 1 1 2 2 2 2 2 2 3 3 4 3 3 4 4 4
3 3 3 3 3 3 3 3 3 3 3 4 4 4 3 4 4 4 3 3 3 3 3 2 1 1 1 1 1 1 1 1 1 2 2 3 3 4 4 4 4 4 4
2 3 2 2 2 2 2 3 3 2 3 4 4 3 3 3 4 4 3 3 3 2 2 2 1 1 1 1 1 1 1 1 1 2 2 3 4 6 5 5 4 4 4
2 2 2 3 2 2 2 2 2 2 3 4 4 3 4 4 3 3 3 3 3 2 2 1 1 0 1 1 2 1 1 1 1 2 3 3 4 6 8 9 9 8 6
2 2 1 2 2 2 2 3 2 3 3 3 3 3 4 4 3 3 3 3 3 2 2 1 1 0 1 2 2 3 2 1 1 2 3 4 4 6 5 7 9 9 11
2 1 1 1 1 2 2 3 3 3 3 3 3 3 3 3 3 3 3 2 2 2 1 1 1 0 1 3 3 3 2 1 2 2 3 4 5 5 6 5 5 6 6
1 1 1 2 2 2 2 3 3 3 3 2 2 2 3 3 3 3 2 2 2 1 1 1 1 0 2 3 3 3 1 1 2 3 3 4 5 8 10 6 5 7 6
2 2 2 3 3 2 2 4 3 3 2 2 2 2 2 3 3 3 2 1 2 1 1 0 0 1 2 3 4 3 1 2 2 3 4 6 7 10 10 5 5 7 7
3 3 3 3 2 2 3 4 3 2 1 1 2 2 2 2 3 2 2 2 1 1 1 0 1 1 2 3 3 4 2 2 3 3 4 4 9 11 10 8 5 8 8
3 3 3 3 2 2 3 3 2 1 1 2 2 2 1 1 2 2 2 2 2 2 1 0 1 1 2 3 3 5 5 5 3 3 4 5 10 11 10 8 8 10 8
3 3 3 3 3 2 3 3 1 1 2 2 2 1 1 1 2 2 2 1 1 1 1 1 1 2 2 2 5 5 6 6 4 4 7 8 10 9 7 8 10 8 4
3 3 3 3 2 2 2 1 1 1 2 1 1 1 1 1 1 1 1 2 2 2 2 1 1 2 2 2 2 2 3 4 4 4 5 8 8 7 7 7 5 4 3
2 2 2 2 2 2 2 1 2 2 2 1 1 1 1 1 1 0 0 1 2 3 2 2 2 2 3 4 6 4 3 3 3 4 3 3 3 3 4 4 4 3 4
3 3 3 2 2 2 2 2 2 2 2 2 1 1 1 1 0 1 2 3 2 2 3 3 3 3 4 6 6 6 6 6 6 4 2 3 3 4 4 4 4 4 4
Wind_Direction
219 199 182 170 159 166 166 167 165 169 160 159 160 162 174 176 171 171 167 162 157 154 149 147 142 141 141 148 139 120 83 42 34 47 356 336 338 345 339 347 355 349 342
203 193 178 170 171 174 177 175 172 173 173 173 174 173 169 171 175 166 160 163 162 163 157 153 157 153 140 130 133 123 118 63 51 96 54 347 338 337 333 322 327 326 342
195 193 184 183 176 181 183 181 179 175 173 165 148 132 110 93 107 145 171 176 168 168 164 164 159 157 153 160 165 154 144 153 7 87 136 149 253 300 304 302 311 325 335
194 190 187 185 186 190 184 177 177 174 170 163 160 159 164 172 187 180 176 171 168 167 168 164 160 160 161 161 171 167 160 147 168 334 123 174 187 222 300 313 315 312 306
194 192 191 187 184 181 176 173 170 171 170 167 167 165 165 170 163 150 151 156 162 166 169 167 161 163 166 172 167 163 161 165 171 181 201 301 337 217 236 289 306 309 288
197 194 188 174 172 167 167 165 164 173 171 167 168 169 168 164 157 160 166 169 162 160 166 162 160 163 165 172 173 168 167 175 170 180 184 192 207 231 236 270 291 297 294
184 181 177 175 174 170 171 168 162 171 174 168 172 175 174 171 172 173 175 171 168 176 184 167 164 167 173 174 165 160 175 180 181 195 216 221 231 230 236 258 282 290 292
181 181 182 181 180 177 172 167 165 167 174 173 175 174 171 171 175 177 173 177 182 186 178 169 167 168 170 171 163 166 187 180 194 213 221 235 249 237 231 240 271 294 296
178 176 177 176 176 174 175 170 165 164 171 176 170 168 170 169 172 173 168 171 171 168 161 160 162 165 163 165 165 172 190 183 202 216 226 250 265 256 247 242 235 257 288
163 163 164 166 168 166 162 158 161 165 167 173 174 166 168 169 167 159 162 163 164 157 153 153 154 153 159 167 161 174 188 178 217 221 222 257 267 271 266 254 258 248 257
158 154 147 140 135 131 134 138 145 146 146 152 155 152 155 152 143 147 156 158 152 150 151 155 153 158 170 170 165 203 201 191 233 262 251 267 273 276 280 273 267 264 257
139 138 134 125 121 124 127 129 132 137 145 145 142 146 140 136 137 144 149 147 144 146 149 146 143 153 159 161 179 208 219 208 231 256 262 273 283 280 279 274 270 270 265
105 108 117 123 128 129 127 126 129 139 138 133 134 136 136 139 143 146 140 135 132 131 131 131 143 159 171 175 200 210 222 231 248 256 261 274 274 275 275 273 272 274 280
120 115 113 122 125 123 123 125 124 129 131 125 126 134 146 144 141 135 131 129 129 130 131 134 147 156 164 179 193 189 204 244 275 275 271 274 268 268 272 275 273 278 281
116 125 128 128 121 108 108 118 117 111 122 124 125 135 132 127 126 127 128 124 122 121 124 119 107 118 174 195 192 194 223 241 279 293 286 282 290 290 289 290 283 284 283
157 143 125 124 128 130 131 124 122 119 117 126 132 131 127 125 127 132 128 122 115 112 112 124 134 127 306 287 284 282 234 256 270 289 297 298 300 301 304 304 300 294 287
127 134 139 139 142 146 141 145 143 124 117 124 127 131 132 130 132 129 124 125 123 117 118 136 134 176 264 292 303 312 312 266 276 285 292 302 303 306 293 294 298 296 294
101 102 101 87 89 96 103 109 108 117 124 126 131 134 134 134 133 133 139 136 132 137 143 160 166 173 285 309 322 327 350 312 293 286 281 283 287 287 292 288 292 290 288
99 108 105 102 95 94 104 106 102 107 114 124 135 143 149 148 146 151 158 155 142 142 158 179 181 229 298 313 317 321 318 304 295 286 285 286 283 293 304 302 297 297 294
75 77 70 71 74 71 102 108 109 107 118 139 146 139 147 154 161 169 167 155 150 162 156 83 298 271 287 294 309 318 295 289 293 294 291 295 298 302 307 301 293 293 294
63 72 73 68 61 84 107 110 108 123 145 124 114 115 128 156 167 163 161 151 138 116 96 4 303 275 283 294 304 308 301 270 284 292 296 294 304 307 308 308 293 291 300
51 59 68 52 39 78 111 112 115 111 88 97 105 112 112 154 149 149 154 149 142 132 153 240 301 298 284 300 298 305 309 303 291 288 288 290 303 307 310 308 306 310 316
49 51 69 56 34 48 106 119 103 90 101 102 113 124 119 124 150 153 155 151 157 171 214 221 264 295 295 293 304 305 309 307 302 286 291 301 308 312 309 308 313 317 310
52 56 64 63 37 38 68 89 80 84 100 106 112 121 128 109 100 143 171 178 193 201 221 233 255 283 293 290 285 284 294 301 302 301 301 309 312 311 308 310 313 310 296
39 55 65 58 38 39 45 58 76 98 99 90 87 85 88 97 49 13 243 233 222 219 224 225 229 248 270 277 294 301 292 292 292 309 308 310 310 310 308 307 305 302 301
46 51 51 51 31 35 49 55 79 105 112 91 66 61 65 61 56 27 2 358 340 318 316 312 299 290 294 305 308 310 311 314 317 324 306 300 298 297 300 305 307 304 301